AE5TC Weather Reports


time (UTC)temp
C
wind
direction
speed
KPH
gust
KPH
rain 1hr
cm
rain 24hr
cm
rain mn
cm
humidity
%
barometer
mb
20260506002115 22 334 3.2 3.2 0.00 0.00 0.00 96 1013.8
20260506001611 22 297 0.0 0.0 0.00 0.00 0.00 96 1013.9
20260506001108 22 293 1.6 1.6 0.00 0.00 0.00 95 1013.9
20260506000606 22 357 3.2 3.2 0.00 0.00 0.00 95 1013.8
20260505235601 22 287 1.6 1.6 0.00 0.00 0.00 94 1013.7
20260505235058 22 284 0.0 0.0 0.00 0.00 0.00 93 1013.7
20260505234555 22 18 1.6 3.2 0.00 0.00 0.00 92 1013.6
20260505234051 23 16 3.2 3.2 0.00 0.00 0.00 91 1013.8
20260505233549 23 270 0.0 1.6 0.00 0.00 0.00 90 1014.0
20260505233046 23 308 1.6 1.6 0.00 0.00 0.00 89 1014.0
20260505232544 23 53 6.4 6.4 0.00 0.00 0.00 88 1014.0
20260505232041 23 355 6.4 9.7 0.00 0.00 0.00 87 1013.8
20260505231538 23 346 6.4 6.4 0.00 0.00 0.00 87 1013.9
20260505231037 23 114 3.2 4.8 0.00 0.00 0.00 85 1014.0
20260505230534 23 48 6.4 6.4 0.00 0.00 0.00 85 1014.0
20260505230030 24 9 3.2 3.2 0.00 0.00 0.00 83 1014.0
20260505225527 24 220 1.6 1.6 0.00 0.00 0.00 83 1013.9
20260505225023 24 320 6.4 9.7 0.00 0.00 0.00 82 1014.0
20260505224520 25 241 1.6 1.6 0.00 0.00 0.00 81 1014.0
20260505224017 25 286 3.2 4.8 0.00 0.00 0.00 79 1013.9
20260505223514 25 309 3.2 4.8 0.00 0.00 0.00 81 1013.8
20260505223010 25 281 0.0 1.6 0.00 0.00 0.00 80 1013.8
20260505222507 25 278 3.2 4.8 0.00 0.00 0.00 78 1013.8
20260505222003 25 309 3.2 4.8 0.00 0.00 0.00 78 1013.8
20260505221500 25 111 3.2 4.8 0.00 0.00 0.00 79 1013.9
20260505220957 25 356 4.8 6.4 0.00 0.00 0.00 78 1013.8
20260505220454 25 23 6.4 6.4 0.00 0.00 0.00 79 1014.0
20260505215951 25 239 6.4 9.7 0.00 0.00 0.00 74 1013.9
20260505215450 25 334 4.8 6.4 0.00 0.00 0.00 71 1013.8
20260505214947 25 298 4.8 4.8 0.00 0.00 0.00 72 1014.0
20260505214445 25 34 6.4 9.7 0.00 0.00 0.00 75 1014.1
20260505213942 26 223 3.2 3.2 0.00 0.00 0.00 73 1014.0
20260505213440 26 118 1.6 3.2 0.00 0.00 0.00 73 1014.0
20260505212936 25 299 3.2 4.8 0.00 0.00 0.00 74 1014.0
20260505212433 26 30 4.8 4.8 0.00 0.00 0.00 71 1014.0
20260505211928 25 6 11.3 16.1 0.00 0.00 0.00 74 1013.9
20260505211426 25 286 3.2 4.8 0.00 0.00 0.00 71 1014.0
20260505210922 25 3 6.4 11.3 0.00 0.00 0.00 67 1013.7
20260505210423 26 336 6.4 9.7 0.00 0.00 0.00 65 1014.0
20260505205916 26 28 3.2 4.8 0.00 0.00 0.00 66 1014.0
20260505205415 26 73 6.4 6.4 0.00 0.00 0.00 67 1014.0
20260505204912 26 218 4.8 6.4 0.00 0.00 0.00 67 1014.0
20260505204409 26 250 3.2 9.7 0.00 0.00 0.00 67 1014.0
20260505203906 26 337 3.2 4.8 0.00 0.00 0.00 60 1014.3
20260505203403 26 277 4.8 4.8 0.00 0.00 0.00 68 1014.2
20260505202859 26 276 3.2 3.2 0.00 0.00 0.00 66 1014.3
20260505202355 26 345 4.8 6.4 0.00 0.00 0.00 68 1014.2
20260505201852 26 171 6.4 9.7 0.00 0.00 0.00 64 1014.4
20260505201349 27 251 1.6 1.6 0.00 0.00 0.00 65 1014.4
20260505200848 27 53 4.8 6.4 0.00 0.00 0.00 64 1014.4
20260505200344 27 70 4.8 9.7 0.00 0.00 0.00 63 1014.4
20260505195840 26 32 4.8 4.8 0.00 0.00 0.00 67 1014.4
20260505195337 26 136 6.4 9.7 0.00 0.00 0.00 63 1014.5
20260505194834 26 307 3.2 3.2 0.00 0.00 0.00 65 1014.5
20260505194331 26 5 4.8 6.4 0.00 0.00 0.00 63 1014.6
20260505193827 26 246 4.8 6.4 0.00 0.00 0.00 66 1014.6
20260505193325 27 312 4.8 6.4 0.00 0.00 0.00 67 1014.5
20260505192822 27 333 3.2 6.4 0.00 0.00 0.00 68 1015.1
20260505192320 26 265 3.2 3.2 0.00 0.00 0.00 65 1014.9
20260505191817 26 348 3.2 4.8 0.00 0.00 0.00 68 1015.0
20260505191316 26 345 4.8 9.7 0.00 0.00 0.00 66 1014.9
20260505190812 26 65 4.8 4.8 0.00 0.00 0.00 67 1015.1
20260505190308 26 285 0.0 1.6 0.00 0.00 0.00 69 1014.9
20260505185804 26 276 6.4 6.4 0.00 0.00 0.00 63 1014.7
20260505185300 26 14 6.4 6.4 0.00 0.00 0.00 59 1014.9
20260505184756 26 348 8.0 11.3 0.00 0.00 0.00 59 1014.7
20260505184254 26 31 4.8 9.7 0.00 0.00 0.00 56 1014.9
20260505183751 26 106 8.0 11.3 0.00 0.00 0.00 64 1014.9
20260505183248 26 77 9.7 12.9 0.00 0.00 0.00 61 1014.8
20260505182744 27 326 4.8 6.4 0.00 0.00 0.00 61 1014.9
20260505182241 26 4 6.4 11.3 0.00 0.00 0.00 61 1015.1
20260505181737 26 125 1.6 3.2 0.00 0.00 0.00 62 1015.2
20260505181235 26 22 12.9 16.1 0.00 0.00 0.00 61 1015.3
20260505180731 27 300 3.2 4.8 0.00 0.00 0.00 67 1015.3
20260505180228 26 46 4.8 6.4 0.00 0.00 0.00 69 1015.3
20260505175724 26 26 4.8 4.8 0.00 0.00 0.00 69 1015.3
20260505175221 26 43 3.2 4.8 0.00 0.00 0.00 66 1015.4
20260505174718 26 339 3.2 4.8 0.00 0.00 0.00 69 1015.5
20260505174215 26 331 6.4 9.7 0.00 0.00 0.00 67 1015.4
20260505173710 26 195 1.6 3.2 0.00 0.00 0.00 67 1015.5
20260505173208 26 253 4.8 4.8 0.00 0.00 0.00 67 1015.6
20260505172705 26 333 1.6 3.2 0.00 0.00 0.00 69 1015.4
20260505172201 26 358 4.8 4.8 0.00 0.00 0.00 66 1015.3
20260505171701 26 225 1.6 3.2 0.00 0.00 0.00 66 1015.3
20260505171159 26 0 3.2 4.8 0.00 0.00 0.00 67 1015.3
20260505170655 25 309 4.8 4.8 0.00 0.00 0.00 67 1015.4
20260505170152 26 39 4.8 9.7 0.00 0.00 0.00 66 1015.2
20260505165652 26 288 1.6 1.6 0.00 0.00 0.00 65 1015.3
20260505165149 26 18 4.8 4.8 0.00 0.00 0.00 67 1015.1
20260505164644 26 29 8.0 11.3 0.00 0.00 0.00 65 1015.1
20260505164142 25 31 6.4 6.4 0.00 0.00 0.00 68 1015.2
20260505163640 26 353 3.2 4.8 0.00 0.00 0.00 67 1015.2
20260505163138 25 327 3.2 6.4 0.00 0.00 0.00 68 1015.2
20260505162635 26 309 3.2 3.2 0.00 0.00 0.00 67 1015.3
20260505162132 26 287 0.0 1.6 0.00 0.00 0.00 65 1015.3
20260505161629 26 309 4.8 4.8 0.00 0.00 0.00 64 1015.2
20260505161126 26 33 1.6 4.8 0.00 0.00 0.00 64 1015.3
20260505160624 25 59 8.0 11.3 0.00 0.00 0.00 64 1015.3
20260505160121 26 5 6.4 9.7 0.00 0.00 0.00 64 1015.4
20260505153101 25 17 6.4 9.7 0.00 0.00 0.00 67 1015.4
20260505152557 26 292 0.0 1.6 0.00 0.00 0.00 67 1015.2
20260505152053 25 349 3.2 4.8 0.00 0.00 0.00 69 1015.2
20260505151548 25 44 4.8 4.8 0.00 0.00 0.00 69 1015.4
20260505151046 25 339 3.2 4.8 0.00 0.00 0.00 70 1015.2
20260505150542 25 318 3.2 4.8 0.00 0.00 0.00 71 1015.4
20260505140508 22 305 1.6 3.2 0.00 0.00 0.00 78 1014.9
20260505124921 17 327 3.2 3.2 0.00 0.00 0.00 91 1015.1
20260505124418 17 285 1.6 3.2 0.00 0.00 0.00 91 1015.0
20260505123914 17 309 3.2 4.8 0.00 0.00 0.00 92 1014.9
20260505123411 16 289 1.6 3.2 0.00 0.00 0.00 93 1014.7
20260505122906 16 286 3.2 4.8 0.00 0.00 0.00 92 1014.8
20260505122404 16 294 1.6 3.2 0.00 0.00 0.00 94 1014.9
20260505121900 15 288 1.6 1.6 0.00 0.00 0.00 96 1014.9
20260505121357 15 299 0.0 0.0 0.00 0.00 0.00 99 1015.0
20260505120853 14 290 1.6 1.6 0.00 0.00 0.00 99 1014.9
20260505120350 14 275 3.2 4.8 0.00 0.00 0.00 99 1014.8
20260505115848 13 288 1.6 1.6 0.00 0.00 0.00 99 1014.6
20260505115346 13 318 3.2 3.2 0.00 0.00 0.00 99 1014.8
20260505114843 13 301 3.2 3.2 0.00 0.00 0.00 99 1014.6
20260505114340 13 278 0.0 1.6 0.00 0.00 0.00 99 1014.6
20260505113836 12 319 1.6 3.2 0.00 0.00 0.00 99 1014.5
20260505113333 12 277 0.0 0.0 0.00 0.00 0.00 99 1014.4
20260505112828 12 277 0.0 0.0 0.00 0.00 0.00 99 1014.4
20260505112326 12 294 0.0 1.6 0.00 0.00 0.00 99 1014.3
20260505111822 12 283 1.6 1.6 0.00 0.00 0.00 99 1014.1
20260505111317 12 276 0.0 1.6 0.00 0.00 0.00 99 1014.4
20260505110814 12 276 3.2 3.2 0.00 0.00 0.00 99 1014.1
20260505110311 12 272 0.0 1.6 0.00 0.00 0.00 99 1014.2
20260505101745 12 301 3.2 4.8 0.00 0.00 0.00 99 1014.0
20260505101241 12 274 0.0 0.0 0.00 0.00 0.00 99 1014.0
20260505100738 12 274 0.0 0.0 0.00 0.00 0.00 99 1013.7
20260505100234 12 278 0.0 0.0 0.00 0.00 0.00 99 1014.1
20260505095730 12 276 0.0 0.0 0.00 0.00 0.00 99 1013.8
20260505095228 12 279 0.0 0.0 0.00 0.00 0.00 99 1013.6
20260505094723 12 280 0.0 0.0 0.00 0.00 0.00 99 1013.6
20260505094220 11 277 0.0 0.0 0.00 0.00 0.00 99 1013.5
20260505093716 11 277 0.0 0.0 0.00 0.00 0.00 99 1013.5
20260505093214 11 277 0.0 0.0 0.00 0.00 0.00 99 1013.5
20260505092710 11 276 0.0 0.0 0.00 0.00 0.00 99 1013.4
20260505092210 11 276 0.0 0.0 0.00 0.00 0.00 99 1013.5
20260505091706 11 277 0.0 0.0 0.00 0.00 0.00 99 1013.6
20260505091204 11 278 0.0 0.0 0.00 0.00 0.00 99 1013.4
20260505090701 11 284 0.0 1.6 0.00 0.00 0.00 99 1013.5
20260505090159 10 253 0.0 0.0 0.00 0.00 0.00 99 1013.7
20260505085657 11 253 0.0 0.0 0.00 0.00 0.00 99 1013.4
20260505085155 11 253 0.0 0.0 0.00 0.00 0.00 99 1013.5